Weather in Yakurim

Russia / Irkutsk Oblast     57°08′45″N   105°40′24″E
temp.,
°C
wind,
m/s
gust,
m/s
humid.,
%
clouds,
%
prec.,
mm/h
press.,
hPa
HPBL,
m
12 may, wed
wed1223:00+1ne399795 1.3 1018562
02:00−2n399379 1.3 1018337
05:00−6n269713 0.0 1019114
08:000n358114 0.0 1018613
11:00+3n4562100 0.6 10161512
14:00+4n5554100 1.3 10151729
17:00+4n4557100 0.7 10161389
20:00+2nnw376987 0.8 1017326
13 may, thu
thu1323:00−4nnw22895 0.0 101826
02:00−4nnw299681 0.1 1019223
05:00−1n2593100 0.2 1018279
08:00+1nne368397 0.3 1018766
11:00+4nne4663100 0.1 10181288
14:00+8ne3645100 0.2 10171983
17:00+10ne353890 0.0 10162240
20:00+6n125886 0.0 101710
14 may, fri
fri1423:00+1n22695 0.0 101910
02:000nne11720 0.0 101910
05:00−1se00740 0.0 101910
08:00+7ssw11500 0.0 1018256
11:00+12sw11344 0.0 10151790
14:00+13s22275 0.0 10132128
17:00+14s23255 0.0 10112307
20:00+10se24425 0.0 101174
15 may, sat
sat1523:00+4se22505 0.0 101210
02:00+3sse22605 0.0 101222
05:00+2s246515 0.0 101258
08:00+8sw48405 0.0 1011586
11:00+11w6759100 0.0 10111334
14:00+4wsw5982100 0.1 1015772
17:00+11wsw693332 0.0 10102129
20:00+7wsw5104563 0.0 10121739
16 may, sun
sun1623:00+3sw51261100 0.0 1011819
02:00+3sw61387100 0.0 1009969
05:00+4wsw51397100 2.6 10081125
08:00+6wnw5128346 3.3 10091341
11:00+8wnw584610 0.1 10111733
14:00+11wnw57306 0.1 10112153
17:00+12wnw572783 0.0 10102271
20:00+8w3742100 0.0 1011260